Time,TemperatureF,DewpointF,PressureIn,WindDirection,WindDirectionDegrees,WindSpeedMPH,WindSpeedGustMPH,Humidity,HourlyPrecipIn,Conditions,Clouds,dailyrainin,SolarRadiationWatts/m^2,SoftwareType,DateUTC
2013-03-19 00:07:00,29.9,28.0,30.05,ENE,62,1.0,-999.0,93,-99.99,,,0.17,0,weatherlink.com 1.10,2013-03-19 04:07:00,
2013-03-19 00:22:00,30.2,28.0,30.05,East,97,0.0,-999.0,92,-99.99,,,0.17,0,weatherlink.com 1.10,2013-03-19 04:22:00,
2013-03-19 00:37:00,30.3,28.0,30.03,SSW,209,0.0,-999.0,92,-99.99,,,0.17,0,weatherlink.com 1.10,2013-03-19 04:37:00,
2013-03-19 00:52:00,30.4,28.0,30.02,ESE,111,2.0,-999.0,92,-99.99,,,0.17,0,weatherlink.com 1.10,2013-03-19 04:52:00,
2013-03-19 01:07:00,30.4,28.0,30.01,ESE,107,4.0,-999.0,92,-99.99,,,0.18,0,weatherlink.com 1.10,2013-03-19 05:07:00,
2013-03-19 01:22:00,30.5,29.0,30.00,ESE,102,2.0,-999.0,92,-99.99,,,0.18,0,weatherlink.com 1.10,2013-03-19 05:22:00,
2013-03-19 01:37:00,30.6,29.0,29.98,SE,143,0.0,-999.0,92,-99.99,,,0.18,0,weatherlink.com 1.10,2013-03-19 05:37:00,
2013-03-19 01:52:00,30.7,29.0,29.96,East,99,4.0,-999.0,92,-99.99,,,0.18,0,weatherlink.com 1.10,2013-03-19 05:52:00,
2013-03-19 02:07:00,31.1,29.0,29.96,East,100,6.0,-999.0,92,-99.99,,,0.01,0,weatherlink.com 1.10,2013-03-19 06:07:00,
2013-03-19 02:22:00,31.4,29.0,29.95,NNE,25,2.0,-999.0,92,-99.99,,,0.01,0,weatherlink.com 1.10,2013-03-19 06:22:00,
2013-03-19 02:37:00,31.8,30.0,29.95,South,173,0.0,-999.0,91,-99.99,,,0.02,0,weatherlink.com 1.10,2013-03-19 06:37:00,
2013-03-19 02:52:00,32.0,30.0,29.95,ESE,115,1.0,-999.0,92,-99.99,,,0.03,0,weatherlink.com 1.10,2013-03-19 06:52:00,
2013-03-19 03:07:00,32.2,30.0,29.94,East,86,2.0,-999.0,92,-99.99,,,0.03,0,weatherlink.com 1.10,2013-03-19 07:07:00,
2013-03-19 03:22:00,32.3,30.0,29.94,East,89,4.0,-999.0,92,-99.99,,,0.05,0,weatherlink.com 1.10,2013-03-19 07:22:00,
2013-03-19 03:37:00,32.4,30.0,29.93,East,90,0.0,-999.0,92,-99.99,,,0.05,0,weatherlink.com 1.10,2013-03-19 07:37:00,
2013-03-19 03:52:00,32.4,30.0,29.90,ESE,109,4.0,-999.0,92,-99.99,,,0.06,0,weatherlink.com 1.10,2013-03-19 07:52:00,
2013-03-19 04:07:00,32.6,31.0,29.89,East,79,3.0,-999.0,92,-99.99,,,0.07,0,weatherlink.com 1.10,2013-03-19 08:07:00,
2013-03-19 04:22:00,32.6,31.0,29.89,NNW,343,2.0,-999.0,92,-99.99,,,0.07,0,weatherlink.com 1.10,2013-03-19 08:22:00,
2013-03-19 04:37:00,32.4,30.0,29.88,East,88,1.0,-999.0,91,-99.99,,,0.07,0,weatherlink.com 1.10,2013-03-19 08:37:00,
2013-03-19 04:52:00,32.3,30.0,29.88,SSE,147,0.0,-999.0,91,-99.99,,,0.07,0,weatherlink.com 1.10,2013-03-19 08:52:00,
2013-03-19 05:07:00,32.4,30.0,29.87,ENE,75,0.0,-999.0,91,-99.99,,,0.07,0,weatherlink.com 1.10,2013-03-19 09:07:00,
2013-03-19 05:22:00,32.3,30.0,29.86,East,92,1.0,-999.0,91,-99.99,,,0.07,0,weatherlink.com 1.10,2013-03-19 09:22:00,
2013-03-19 05:37:00,32.4,30.0,29.85,East,101,0.0,-999.0,91,-99.99,,,0.07,0,weatherlink.com 1.10,2013-03-19 09:37:00,
2013-03-19 05:52:00,32.4,30.0,29.84,North,355,1.0,-999.0,91,-99.99,,,0.07,0,weatherlink.com 1.10,2013-03-19 09:52:00,
2013-03-19 06:07:00,32.5,30.0,29.83,SSW,209,1.0,-999.0,91,-99.99,,,0.07,0,weatherlink.com 1.10,2013-03-19 10:07:00,
2013-03-19 06:22:00,32.6,30.0,29.83,ENE,69,3.0,-999.0,91,-99.99,,,0.07,0,weatherlink.com 1.10,2013-03-19 10:22:00,
2013-03-19 06:37:00,32.6,30.0,29.82,East,96,4.0,-999.0,91,-99.99,,,0.07,0,weatherlink.com 1.10,2013-03-19 10:37:00,
2013-03-19 06:52:00,32.6,30.0,29.81,East,88,2.0,-999.0,91,-99.99,,,0.07,0,weatherlink.com 1.10,2013-03-19 10:52:00,
2013-03-19 07:07:00,32.6,30.0,29.80,NNE,27,3.0,-999.0,91,-99.99,,,0.07,0,weatherlink.com 1.10,2013-03-19 11:07:00,
2013-03-19 07:22:00,32.6,30.0,29.80,NE,43,2.0,-999.0,91,-99.99,,,0.07,0,weatherlink.com 1.10,2013-03-19 11:22:00,
2013-03-19 07:37:00,32.6,30.0,29.81,NE,44,2.0,-999.0,91,-99.99,,,0.07,5,weatherlink.com 1.10,2013-03-19 11:37:00,
2013-03-19 07:52:00,32.6,31.0,29.81,East,84,5.0,-999.0,92,-99.99,,,0.07,9,weatherlink.com 1.10,2013-03-19 11:52:00,
2013-03-19 08:07:00,32.5,31.0,29.81,NNE,17,0.0,-999.0,92,-99.99,,,0.07,12,weatherlink.com 1.10,2013-03-19 12:07:00,
2013-03-19 08:22:00,32.6,31.0,29.81,North,355,1.0,-999.0,93,-99.99,,,0.07,18,weatherlink.com 1.10,2013-03-19 12:22:00,
2013-03-19 08:37:00,32.6,31.0,29.80,NE,34,2.0,-999.0,94,-99.99,,,0.07,26,weatherlink.com 1.10,2013-03-19 12:37:00,
2013-03-19 08:52:00,32.6,31.0,29.79,North,355,3.0,-999.0,94,-99.99,,,0.07,21,weatherlink.com 1.10,2013-03-19 12:52:00,
2013-03-19 09:07:00,32.8,31.0,29.78,ENE,66,2.0,-999.0,94,-99.99,,,0.07,33,weatherlink.com 1.10,2013-03-19 13:07:00,
2013-03-19 09:23:00,32.8,31.0,29.78,North,9,3.0,-999.0,94,-99.99,,,0.07,40,weatherlink.com 1.10,2013-03-19 13:23:00,
2013-03-19 09:37:00,33.0,32.0,29.77,NE,42,3.0,-999.0,94,-99.99,,,0.07,46,weatherlink.com 1.10,2013-03-19 13:37:00,
2013-03-19 10:07:00,33.5,32.0,29.74,NW,304,0.0,-999.0,93,-99.99,,,0.07,62,weatherlink.com 1.10,2013-03-19 14:07:00,
2013-03-19 10:22:00,33.8,32.0,29.75,North,5,2.0,-999.0,93,-99.99,,,0.07,76,weatherlink.com 1.10,2013-03-19 14:22:00,
2013-03-19 10:37:00,34.1,32.0,29.74,NE,48,0.0,-999.0,93,-99.99,,,0.07,76,weatherlink.com 1.10,2013-03-19 14:37:00,
2013-03-19 10:52:00,34.4,33.0,29.75,NE,48,2.0,-999.0,93,-99.99,,,0.07,44,weatherlink.com 1.10,2013-03-19 14:52:00,
2013-03-19 11:07:00,34.4,33.0,29.76,NNW,327,2.0,-999.0,93,-99.99,,,0.07,28,weatherlink.com 1.10,2013-03-19 15:07:00,
2013-03-19 11:22:00,34.3,33.0,29.75,ENE,75,1.0,-999.0,94,-99.99,,,0.07,72,weatherlink.com 1.10,2013-03-19 15:22:00,
2013-03-19 11:37:00,34.1,33.0,29.76,NNW,332,4.0,-999.0,94,-99.99,,,0.08,30,weatherlink.com 1.10,2013-03-19 15:37:00,
2013-03-19 11:52:00,34.2,33.0,29.78,NW,326,2.0,-999.0,95,-99.99,,,0.09,53,weatherlink.com 1.10,2013-03-19 15:52:00,
2013-03-19 12:07:00,34.3,33.0,29.77,NNE,23,4.0,-999.0,95,-99.99,,,0.10,56,weatherlink.com 1.10,2013-03-19 16:07:00,
2013-03-19 12:37:00,34.1,33.0,29.74,NE,56,0.0,-999.0,95,-99.99,,,0.14,83,weatherlink.com 1.10,2013-03-19 16:37:00,
2013-03-19 12:52:00,34.2,33.0,29.75,North,355,6.0,-999.0,95,-99.99,,,0.15,107,weatherlink.com 1.10,2013-03-19 16:52:00,
2013-03-19 13:07:00,34.1,33.0,29.69,NE,49,1.0,-999.0,95,-99.99,,,0.17,181,weatherlink.com 1.10,2013-03-19 17:07:00,
2013-03-19 13:22:00,34.8,34.0,29.72,NNW,333,3.0,-999.0,96,-99.99,,,0.17,315,weatherlink.com 1.10,2013-03-19 17:22:00,
2013-03-19 13:37:00,35.8,35.0,29.71,NNW,346,2.0,-999.0,95,-99.99,,,0.17,424,weatherlink.com 1.10,2013-03-19 17:37:00,
2013-03-19 13:52:00,36.2,35.0,29.70,North,5,4.0,-999.0,94,-99.99,,,0.17,427,weatherlink.com 1.10,2013-03-19 17:52:00,
2013-03-19 14:07:00,36.6,35.0,29.70,NNE,13,6.0,-999.0,92,-99.99,,,0.17,322,weatherlink.com 1.10,2013-03-19 18:07:00,
2013-03-19 14:22:00,37.1,35.0,29.69,NNW,348,3.0,-999.0,91,-99.99,,,0.17,283,weatherlink.com 1.10,2013-03-19 18:22:00,
2013-03-19 14:37:00,37.6,35.0,29.68,North,360,6.0,-999.0,89,-99.99,,,0.17,336,weatherlink.com 1.10,2013-03-19 18:37:00,
2013-03-19 14:52:00,37.6,34.0,29.67,NNE,15,3.0,-999.0,88,-99.99,,,0.17,269,weatherlink.com 1.10,2013-03-19 18:52:00,
2013-03-19 15:07:00,37.9,34.0,29.68,North,351,1.0,-999.0,87,-99.99,,,0.17,167,weatherlink.com 1.10,2013-03-19 19:07:00,
2013-03-19 15:22:00,38.1,35.0,29.68,NE,50,2.0,-999.0,87,-99.99,,,0.17,148,weatherlink.com 1.10,2013-03-19 19:22:00,
2013-03-19 15:37:00,37.7,35.0,29.69,WNW,284,3.0,-999.0,88,-99.99,,,0.17,104,weatherlink.com 1.10,2013-03-19 19:37:00,
2013-03-19 15:52:00,36.9,35.0,29.70,WNW,294,3.0,-999.0,91,-99.99,,,0.17,97,weatherlink.com 1.10,2013-03-19 19:52:00,
2013-03-19 16:07:00,36.2,34.0,29.69,NW,317,7.0,-999.0,92,-99.99,,,0.17,160,weatherlink.com 1.10,2013-03-19 20:07:00,
2013-03-19 16:22:00,36.1,34.0,29.70,NW,306,3.0,-999.0,93,-99.99,,,0.17,137,weatherlink.com 1.10,2013-03-19 20:22:00,
2013-03-19 16:37:00,36.6,35.0,29.68,NW,306,1.0,-999.0,92,-99.99,,,0.17,452,weatherlink.com 1.10,2013-03-19 20:37:00,
2013-03-19 16:52:00,36.6,34.0,29.68,West,271,0.0,-999.0,91,-99.99,,,0.17,141,weatherlink.com 1.10,2013-03-19 20:52:00,
2013-03-19 17:07:00,36.8,35.0,29.68,NW,312,4.0,-999.0,91,-99.99,,,0.17,188,weatherlink.com 1.10,2013-03-19 21:07:00,
2013-03-19 17:22:00,36.6,34.0,29.70,NW,316,2.0,-999.0,90,-99.99,,,0.17,98,weatherlink.com 1.10,2013-03-19 21:22:00,
2013-03-19 17:37:00,36.6,34.0,29.69,NW,316,0.0,-999.0,90,-99.99,,,0.17,95,weatherlink.com 1.10,2013-03-19 21:37:00,
2013-03-19 17:52:00,36.7,34.0,29.69,NW,316,0.0,-999.0,90,-99.99,,,0.17,56,weatherlink.com 1.10,2013-03-19 21:52:00,
2013-03-19 18:07:00,37.0,34.0,29.69,NW,316,2.0,-999.0,90,-99.99,,,0.17,160,weatherlink.com 1.10,2013-03-19 22:07:00,
2013-03-19 18:22:00,37.1,34.0,29.69,NW,317,1.0,-999.0,88,-99.99,,,0.17,62,weatherlink.com 1.10,2013-03-19 22:22:00,
2013-03-19 18:37:00,36.8,34.0,29.69,NW,317,1.0,-999.0,89,-99.99,,,0.17,53,weatherlink.com 1.10,2013-03-19 22:37:00,
2013-03-19 18:53:00,36.6,34.0,29.70,NW,317,0.0,-999.0,89,-99.99,,,0.17,7,weatherlink.com 1.10,2013-03-19 22:53:00,
2013-03-19 19:07:00,36.2,33.0,29.70,NW,317,0.0,-999.0,89,-99.99,,,0.17,0,weatherlink.com 1.10,2013-03-19 23:07:00,
2013-03-19 19:22:00,36.1,33.0,29.71,NW,317,0.0,-999.0,89,-99.99,,,0.17,0,weatherlink.com 1.10,2013-03-19 23:22:00,
2013-03-19 19:37:00,35.7,33.0,29.73,NW,317,0.0,-999.0,90,-99.99,,,0.17,0,weatherlink.com 1.10,2013-03-19 23:37:00,
2013-03-19 19:52:00,35.2,33.0,29.72,NW,317,2.0,-999.0,91,-99.99,,,0.18,0,weatherlink.com 1.10,2013-03-19 23:52:00,
2013-03-19 20:07:00,34.8,33.0,29.72,NW,317,0.0,-999.0,92,-99.99,,,0.18,0,weatherlink.com 1.10,2013-03-20 00:07:00,
2013-03-19 20:22:00,34.5,33.0,29.72,NW,317,0.0,-999.0,93,-99.99,,,0.18,0,weatherlink.com 1.10,2013-03-20 00:22:00,
2013-03-19 20:37:00,34.6,33.0,29.73,NW,317,0.0,-999.0,93,-99.99,,,0.18,0,weatherlink.com 1.10,2013-03-20 00:37:00,
2013-03-19 20:52:00,35.0,34.0,29.74,NW,317,0.0,-999.0,94,-99.99,,,0.19,0,weatherlink.com 1.10,2013-03-20 00:52:00,
2013-03-19 21:07:00,35.1,33.0,29.75,NW,317,0.0,-999.0,93,-99.99,,,0.19,0,weatherlink.com 1.10,2013-03-20 01:07:00,
2013-03-19 21:22:00,34.4,33.0,29.74,ENE,76,0.0,-999.0,94,-99.99,,,0.19,0,weatherlink.com 1.10,2013-03-20 01:22:00,
2013-03-19 21:37:00,34.4,33.0,29.74,NNW,337,1.0,-999.0,94,-99.99,,,0.19,0,weatherlink.com 1.10,2013-03-20 01:37:00,
2013-03-19 21:52:00,35.4,34.0,29.74,NW,315,1.0,-999.0,94,-99.99,,,0.19,0,weatherlink.com 1.10,2013-03-20 01:52:00,
2013-03-19 22:07:00,35.9,34.0,29.74,WNW,298,0.0,-999.0,92,-99.99,,,0.19,0,weatherlink.com 1.10,2013-03-20 02:07:00,
2013-03-19 22:22:00,36.0,33.0,29.74,WNW,284,0.0,-999.0,89,-99.99,,,0.19,0,weatherlink.com 1.10,2013-03-20 02:22:00,
2013-03-19 22:37:00,36.6,32.0,29.76,West,278,2.0,-999.0,84,-99.99,,,0.19,0,weatherlink.com 1.10,2013-03-20 02:37:00,
2013-03-19 22:52:00,36.6,30.0,29.75,WNW,285,5.0,-999.0,78,-99.99,,,0.19,0,weatherlink.com 1.10,2013-03-20 02:52:00,
2013-03-19 23:07:00,36.4,29.0,29.75,NW,322,3.0,-999.0,73,-99.99,,,0.19,0,weatherlink.com 1.10,2013-03-20 03:07:00,
2013-03-19 23:22:00,35.7,25.0,29.75,WNW,292,3.0,-999.0,66,-99.99,,,0.19,0,weatherlink.com 1.10,2013-03-20 03:22:00,
2013-03-19 23:37:00,35.2,24.0,29.76,NNW,337,6.0,-999.0,64,-99.99,,,0.19,0,weatherlink.com 1.10,2013-03-20 03:37:00,
2013-03-19 23:52:00,34.8,23.0,29.76,West,277,2.0,-999.0,63,-99.99,,,0.19,0,weatherlink.com 1.10,2013-03-20 03:52:00,